Location: Namasale
(1.5000°N, 32.6167°E)
Time: 18:45:16
(UTC+00:00)

Courier 1B - Pass Details

Date: 24 April 2021
Orbit: 962 x 1209 km, 28.3° (Epoch: 09 May)

Event Time Altitude Azimuth Distance (km) Brightness Sun altitude
Rises 08:09:10 0° 287° (WNW) 3,913 10.5 63.0°
Reaches altitude 10° 08:14:03 10° 315° (NW) 2,888 10.0 64.1°
Maximum altitude 08:16:48 12° 339° (NNW) 2,672 10.0 64.7°
Drops below altitude 10° 08:19:30 10° 2° (N) 2,815 10.2 65.3°
Sets 08:24:08 0° 31° (NNE) 3,710 10.8 66.3°
